Location: Newark
(48.5667°N, 7.8167°E)
Time: 20:35:28
(UTC+00:00)

ISS - Visible Passes

Search period start: 19 September 2021 00:00
Search period end: 29 September 2021 00:00
Orbit: 419 x 423 km, 51.6° (Epoch: 19 September)

Date Brightness Start Highest point End Pass type
(mag) Time Alt. Az. Time Alt. Az. Time Alt. Az.
19 Sep -2.7 18:05:30 10° SSW 18:08:26 29° SE 18:11:25 10° E visible
19 Sep -3.4 19:41:44 10° WSW 19:44:44 64° WNW 19:44:44 64° WNW visible
20 Sep -3.8 18:54:49 10° WSW 18:58:12 87° SSE 18:59:51 28° ENE visible
20 Sep -0.9 20:31:57 10° WNW 20:32:52 17° WNW 20:32:52 17° WNW visible
21 Sep -3.7 18:07:59 10° SW 18:11:20 63° SSE 18:14:40 10° ENE visible
21 Sep -2.8 19:44:58 10° W 19:47:52 47° NW 19:47:52 47° NW visible
22 Sep -3.3 18:57:58 10° W 19:01:19 58° NNW 19:02:49 29° ENE visible
22 Sep -0.6 20:35:09 10° WNW 20:35:48 15° WNW 20:35:48 15° WNW visible
23 Sep -3.5 18:10:59 10° WSW 18:14:22 71° NNW 18:17:42 10° ENE visible
23 Sep -2.4 19:48:11 10° WNW 19:50:41 38° NW 19:50:41 38° NW visible
24 Sep -3.0 19:01:13 10° WNW 19:04:29 48° N 19:05:33 34° NE visible
24 Sep -0.4 20:38:13 10° WNW 20:38:32 12° WNW 20:38:32 12° WNW visible
25 Sep -3.1 18:14:12 10° W 18:17:30 50° N 18:20:23 13° ENE visible
25 Sep -2.0 19:51:18 10° WNW 19:53:22 33° NW 19:53:22 33° NW visible
26 Sep -3.3 19:04:22 10° WNW 19:07:41 52° N 19:08:11 46° NE visible
27 Sep -3.1 18:17:24 10° WNW 18:20:41 48° N 18:23:01 17° ENE visible
27 Sep -1.6 19:54:20 10° WNW 19:56:00 27° WNW 19:56:00 27° WNW visible
28 Sep -3.8 19:07:25 10° WNW 19:10:48 76° NNE 19:10:51 76° NNE visible
